DW8548 Weather Reports


time (UTC)temp
C
wind
direction
speed
KPH
gust
KPH
rain 1hr
cm
rain 24hr
cm
rain mn
cm
humidity
%
barometer
mb
20260905193101 11 153 0.0 9.7 0.00 0.56 0.00 93 1017.4
20260905191602 11 197 1.6 12.9 0.00 0.56 0.00 93 1017.1
20260905190105 11 204 1.6 9.7 0.00 0.56 0.00 94 1017.1
20260905184606 12 180 0.0 6.4 0.00 0.56 0.00 93 1017.1
20260905183105 12 0 0.0 9.7 0.00 0.56 0.00 94 1017.1
20260905181607 12 140 0.0 6.4 0.00 0.56 0.00 94 1017.1
20260905180116 12 0 0.0 3.2 0.00 0.56 0.00 94 1017.1
20260905174605 12 0 0.0 1.6 0.00 0.56 0.00 94 1017.1
20260905173127 12 0 0.0 3.2 0.00 0.56 0.00 94 1016.9
20260905171600 13 103 0.0 0.0 0.00 0.56 0.00 94 1016.8
20260905170106 13 0 0.0 0.0 0.00 0.56 0.00 94 1016.5
20260905164614 13 0 0.0 0.0 0.00 0.56 0.00 94 1016.2
20260905163103 13 0 0.0 0.0 0.00 0.56 0.00 94 1016.1
20260905161605 13 0 0.0 0.0 0.00 0.56 0.00 94 1016.0
20260905160107 13 0 0.0 0.0 0.00 0.56 0.00 94 1016.0
20260905154605 13 0 0.0 0.0 0.00 0.56 0.56 93 1016.0
20260905153100 13 0 0.0 0.0 0.00 0.53 0.53 93 1016.0
20260905151606 13 0 0.0 1.6 0.00 0.53 0.53 93 1016.1
20260905150127 13 0 0.0 3.2 0.00 0.53 0.53 93 1016.2
20260905144609 13 0 0.0 1.6 0.00 0.53 0.53 93 1016.1
20260905143104 13 0 0.0 0.0 0.00 0.53 0.53 93 1016.1
20260905141605 13 184 0.0 3.2 0.00 0.53 0.53 93 1016.1
20260905140113 13 0 0.0 0.0 0.00 0.53 0.53 93 1016.1
20260905134606 13 0 0.0 1.6 0.03 0.53 0.53 92 1016.0
20260905133105 13 0 0.0 0.0 0.03 0.53 0.53 92 1016.0
20260905131600 13 0 0.0 0.0 0.00 0.51 0.51 92 1016.0
20260905124600 13 0 0.0 3.2 0.00 0.48 0.48 91 1015.8
20260905123106 13 0 0.0 1.6 0.08 0.48 0.48 91 1015.5
20260905121605 13 0 0.0 1.6 0.30 0.48 0.48 91 1015.7
20260905120112 13 0 0.0 8.0 0.41 0.48 0.48 91 1015.6
20260905114611 13 244 1.6 11.3 0.38 0.46 0.46 90 1015.6
20260905113102 13 342 3.2 11.3 0.33 0.41 0.41 89 1015.3
20260905111653 14 331 3.2 11.3 0.08 0.18 0.18 88 1015.2
20260905110059 14 5 1.6 12.9 0.00 0.08 0.08 87 1015.0
20260905104559 15 0 1.6 9.7 0.00 0.08 0.08 87 1014.8
20260905103109 15 349 1.6 16.1 0.00 0.08 0.08 85 1014.7
20260905101602 15 304 4.8 16.1 0.00 0.08 0.08 83 1014.3
20260905100104 16 338 3.2 12.9 0.00 0.08 0.08 79 1014.3
20260905094605 16 79 0.0 4.8 0.00 0.08 0.08 75 1014.0
20260905093122 16 313 1.6 9.7 0.00 0.08 0.08 74 1013.9
20260905091604 17 289 1.6 14.5 0.00 0.08 0.08 73 1013.7
20260905084603 17 0 1.6 17.7 0.00 0.08 0.08 68 1013.6
20260905083059 17 350 1.6 12.9 0.00 0.08 0.08 67 1013.7
20260905081603 17 0 0.0 8.0 0.00 0.08 0.08 70 1014.0
20260905074611 17 256 1.6 22.5 0.00 0.08 0.08 72 1014.3
20260905073104 18 282 3.2 16.1 0.00 0.08 0.08 70 1014.3
20260905071558 17 40 3.2 14.5 0.00 0.08 0.08 71 1014.4
20260905070106 17 355 3.2 12.9 0.00 0.08 0.08 71 1014.4
20260905064631 18 0 3.2 22.5 0.00 0.08 0.08 74 1014.3
20260905063103 18 355 3.2 12.9 0.03 0.08 0.08 75 1014.6
20260905061604 17 45 1.6 6.4 0.08 0.08 0.08 82 1014.6
20260905060111 15 48 1.6 22.5 0.08 0.08 0.08 88 1015.0
20260905054607 15 310 1.6 9.7 0.08 0.08 0.08 87 1015.4
20260905053104 15 36 1.6 14.5 0.03 0.03 0.03 84 1015.4
20260905051558 16 355 4.8 16.1 0.00 0.00 0.00 73 1015.6
20260905050108 18 304 3.2 17.7 0.00 0.00 0.00 63 1015.6
20260905044606 18 310 4.8 16.1 0.00 0.00 0.00 64 1016.0
20260905043108 18 323 3.2 9.7 0.00 0.00 0.00 62 1016.1
20260905041603 19 360 3.2 14.5 0.00 0.00 0.00 61 1016.1
20260905034609 18 360 1.6 8.0 0.00 0.00 0.00 65 1016.7
20260905033101 18 360 1.6 11.3 0.00 0.00 0.00 65 1016.8
20260905031605 18 355 1.6 11.3 0.00 0.00 0.00 65 1017.1
20260905030119 17 24 0.0 6.4 0.00 0.00 0.00 68 1017.2
20260905024605 16 28 0.0 4.8 0.00 0.00 0.00 71 1017.7
20260905023101 16 24 1.6 9.7 0.00 0.00 0.00 72 1017.8
20260905021604 16 0 0.0 6.4 0.00 0.00 0.00 74 1018.0
20260905020107 16 13 0.0 3.2 0.00 0.00 0.00 76 1018.0
20260905014603 16 75 1.6 8.0 0.00 0.00 0.00 77 1018.4
20260905013101 16 0 0.0 4.8 0.00 0.00 0.00 80 1018.4
20260905011608 16 81 0.0 3.2 0.00 0.00 0.00 81 1018.6
20260905010103 15 5 1.6 6.4 0.00 0.00 0.00 83 1018.8
20260905004608 14 0 0.0 8.0 0.00 0.00 0.00 85 1018.9
20260905003101 14 27 1.6 9.7 0.00 0.00 0.00 82 1019.1
20260905001609 14 0 0.0 3.2 0.00 0.00 0.00 80 1018.9
20260905000105 14 5 0.0 3.2 0.00 0.00 0.00 80 1018.6
20260904234608 13 0 0.0 1.6 0.00 0.00 0.00 80 1018.5
20260904233103 13 29 0.0 6.4 0.00 0.00 0.00 78 1018.4
20260904231604 13 0 0.0 1.6 0.00 0.00 0.00 78 1018.4
20260904230106 13 0 0.0 1.6 0.00 0.00 0.00 75 1018.2
20260904224602 13 0 0.0 1.6 0.00 0.00 0.00 75 1018.2
20260904223101 13 0 0.0 1.6 0.00 0.00 0.00 75 1018.2
20260904221608 13 0 0.0 1.6 0.00 0.00 0.00 75 1018.4
20260904220111 13 0 0.0 1.6 0.00 0.00 0.00 76 1018.3
20260904214605 13 0 0.0 3.2 0.00 0.00 0.00 76 1018.2
20260904213104 13 0 0.0 3.2 0.00 0.00 0.00 75 1018.1
20260904211608 13 0 0.0 1.6 0.00 0.00 0.00 77 1017.9
20260904210111 13 0 0.0 0.0 0.00 0.00 0.00 78 1018.1
20260904204606 13 0 0.0 0.0 0.00 0.00 0.00 78 1018.2
20260904203109 13 0 0.0 0.0 0.00 0.00 0.00 77 1018.0
20260904201606 13 0 0.0 0.0 0.00 0.00 0.00 75 1018.1
20260904200134 13 0 0.0 0.0 0.00 0.00 0.00 73 1018.1
20260904194635 13 0 0.0 0.0 0.00 0.00 0.00 72 1018.3